GFSFLT1_2pvu_pres_015.txt.gz
Presure
197 188 188 184 182 175 183 193 170 174 185 184 179 167 187 185 183 184 184 185 185 187 184 193 193 194 195 193 192 197 201 208
183 165 171 184 184 167 179 172 174 182 176 172 173 169 187 187 184 180 178 180 183 182 184 186 191 184 187 191 195 197 200 207
144 168 157 176 174 175 180 181 182 174 178 172 181 177 168 175 173 170 166 174 173 172 174 182 188 195 194 191 185 188 190 207
168 173 180 166 170 159 186 188 181 183 185 189 182 191 176 186 189 187 193 185 179 188 172 175 179 184 187 193 200 199 193 199
120 146 152 183 161 159 136 171 185 185 174 173 174 141 189 186 132 186 185 183 182 193 197 194 197 206 195 194 198 191 201 197
142 124 168 162 125 150 125 182 127 146 186 127 164 191 144 185 170 193 192 194 195 194 202 206 205 206 202 203 200 203 197 212
130 117 173 158 155 125 175 170 174 175 181 184 179 180 190 187 188 194 201 203 200 203 205 210 213 218 227 233 237 246 243 250
126 174 156 167 169 168 120 128 138 131 119 174 195 194 188 195 199 201 216 232 232 230 225 228 236 248 253 255 248 254 265 264
159 159 173 181 173 184 182 170 182 135 182 180 182 195 206 203 221 224 228 229 230 234 257 264 261 275 270 280 290 290 289 305
172 166 173 173 143 122 173 187 181 191 200 191 204 204 205 219 226 228 235 238 270 279 290 268 272 347 344 334 331 328 334 333
136 174 164 169 168 154 144 129 192 193 200 204 190 220 224 223 237 237 242 243 288 280 282 302 283 313 305 295 295 309 284 280
161 160 170 174 146 172 200 196 195 202 207 211 224 215 226 222 225 251 288 275 281 295 284 279 280 280 295 300 293 285 283 288
145 195 187 190 167 203 163 207 209 214 213 220 217 228 243 217 272 286 287 300 301 277 272 267 282 284 261 256 268 268 270 266
180 176 197 189 191 187 146 209 200 207 212 214 236 249 251 289 267 290 300 300 283 261 264 274 296 289 293 304 293 275 272 355
190 191 195 172 201 182 212 211 209 217 234 238 254 250 297 306 303 307 309 284 258 260 265 273 276 246 256 259 270 276 377 368
195 166 205 209 207 175 154 207 220 226 234 257 302 299 309 309 318 279 274 259 256 259 263 263 276 289 295 287 293 373 361 352
207 153 141 202 201 204 213 218 230 251 263 300 312 317 316 288 285 281 298 292 262 270 424 409 401 395 389 380 369 356 350 353
209 184 136 199 209 213 232 235 254 261 281 305 323 301 281 281 301 362 395 430 390 414 403 396 392 381 373 359 351 351 346 353
184 182 143 214 242 259 238 255 273 310 308 327 306 283 295 339 395 382 400 399 404 406 395 391 378 367 353 349 343 338 352 342

GFSFLT1_2pvu_pres_018.txt.gz
Presure
190 186 175 159 181 181 167 166 180 187 188 189 187 184 187 176 187 175 182 185 160 184 190 183 185 174 176 175 176 180 181 185
193 185 182 174 177 184 179 192 171 155 186 185 181 183 131 187 172 172 177 184 185 194 191 196 200 197 173 191 195 198 189 179
193 193 179 180 118 177 155 155 140 182 131 139 147 125 175 176 181 177 191 157 188 158 142 202 202 202 167 203 206 197 197 201
187 191 183 181 128 126 174 170 167 132 152 162 181 124 172 141 172 142 186 162 184 170 169 162 204 176 193 210 223 230 228 218
173 188 162 139 155 131 124 137 166 134 125 156 176 119 137 127 191 146 171 171 187 137 206 160 145 228 220 226 230 234 231 231
182 156 173 157 145 160 166 164 154 163 123 119 170 173 173 183 186 193 185 197 211 217 221 225 206 224 100 233 229 243 229 249
163 164 177 173 137 151 157 165 164 122 152 128 173 182 185 193 208 209 221 220 212 214 213 214 229 236 227 239 291 289 280 269
185 190 167 178 154 139 143 173 169 178 181 182 187 192 204 195 215 217 213 207 218 216 216 236 256 246 286 225 271 301 293 284
157 172 183 179 158 175 140 118 136 176 187 189 204 206 213 210 211 212 206 216 219 218 282 288 305 293 290 278 290 302 311 292
177 176 178 186 189 185 187 182 189 192 132 207 213 207 208 191 203 210 221 221 256 260 271 304 303 304 293 286 296 305 281 269
180 183 180 175 179 181 185 194 204 202 212 169 207 205 174 217 219 230 254 266 258 295 298 314 308 306 297 301 301 289 259 263
169 180 187 192 197 148 209 207 186 199 209 210 176 153 143 227 239 266 265 256 301 304 316 311 303 288 295 274 277 269 257 261
183 182 193 206 129 208 210 206 171 216 189 204 220 235 239 265 254 265 260 295 316 317 315 291 278 269 274 277 274 267 264 256
189 198 196 194 193 202 205 161 193 202 208 225 236 228 241 275 252 270 296 321 318 282 277 286 301 328 373 386 397 379 369 421
194 193 192 204 203 204 210 208 203 216 222 233 233 239 285 285 282 315 317 293 281 323 341 386 421 386 432 418 418 410 406 397
184 198 205 202 199 205 206 217 227 227 228 234 241 292 303 297 323 315 286 304 346 426 406 395 382 406 399 409 404 398 395 387
206 208 198 197 210 213 222 227 224 226 237 246 296 311 307 319 283 285 339 403 392 399 387 397 409 393 398 396 387 386 377 370
191 208 200 220 225 226 216 231 249 242 259 299 316 316 288 281 330 411 409 410 411 405 415 410 397 395 386 381 379 373 367 353
206 215 219 213 213 227 231 264 270 265 316 315 314 283 299 363 421 412 420 427 420 412 404 402 393 383 379 372 366 359 347 341

GFSFLT1_2pvu_pres_021.txt.gz
Presure
202 200 203 205 202 190 127 172 134 170 166 156 143 142 143 140 174 140 172 171 180 164 184 191 184 166 183 189 194 193 197 197
187 199 203 199 194 206 195 179 126 129 146 129 151 157 161 143 124 174 158 155 137 132 153 191 193 202 175 175 163 208 210 212
206 182 200 133 174 206 154 138 145 150 121 155 156 149 121 139 175 183 109 153 188 192 186 203 167 196 177 194 217 212 202 172
161 170 187 167 120 178 174 165 173 192 190 171 154 168 162 176 153 186 191 165 145 192 150 207 213 216 214 208 211 217 219 178
196 126 111 175 199 146 182 182 131 180 143 147 176 156 124 117 187 189 189 141 204 212 218 217 191 213 216 225 216 239 227 227
196 145 185 190 170 175 164 182 182 180 162 172 190 188 119 185 154 197 200 195 213 213 194 206 206 215 229 219 260 246 258 261
181 160 186 179 172 125 170 175 178 182 176 184 170 168 179 164 189 203 206 212 205 201 219 221 229 186 265 259 257 271 264 287
173 142 160 172 175 179 182 122 182 179 143 157 195 178 206 206 213 212 191 207 169 214 227 230 227 246 266 264 262 285 275 307
172 174 122 161 178 181 185 188 128 188 193 194 206 209 207 209 196 157 224 231 233 155 210 240 244 267 289 283 277 307 304 322
163 180 139 177 182 192 193 197 198 197 193 177 171 208 202 221 217 225 223 238 234 251 250 254 287 291 300 296 308 310 315 313
176 171 178 183 190 206 202 204 201 212 202 204 185 196 218 221 136 169 250 188 257 262 267 287 299 305 307 325 328 317 298 281
160 169 180 192 195 207 204 205 202 195 194 211 216 216 168 198 225 241 274 262 274 264 283 310 309 314 301 288 284 290 330 389
125 176 197 201 201 199 198 206 207 215 210 212 213 223 226 247 278 282 286 268 268 314 316 319 307 284 283 425 421 408 405 405
194 196 199 194 192 199 204 209 215 209 212 210 211 226 256 255 280 295 282 276 320 318 279 281 348 414 409 395 384 383 420 380
191 193 195 196 121 169 136 206 211 211 208 212 226 246 286 290 296 301 302 315 290 286 395 425 408 390 394 406 390 390 388 400
191 123 123 132 125 131 203 209 209 209 213 222 257 284 301 299 307 319 310 285 393 424 405 411 408 414 424 420 407 407 403 395
147 201 203 189 132 211 211 203 217 214 225 231 297 314 316 322 317 281 372 432 412 417 426 419 411 406 406 406 404 401 397 393
184 207 203 214 212 207 204 211 221 222 238 303 320 326 315 273 318 439 420 413 433 416 403 394 383 379 380 381 382 384 386 383
208 207 208 211 211 204 213 230 234 248 298 324 325 277 285 366 430 416 421 412 399 388 379 371 365 359 357 357 357 357 358 360

GFSFLT1_2pvu_pres_024.txt.gz
Presure
205 212 193 201 205 185 201 187 181 180 198 173 172 152 152 140 190 161 134 177 164 132 161 186 184 192 196 203 201 200 206 199
203 196 200 176 181 137 128 135 188 165 180 173 172 158 173 181 188 116 121 191 194 124 121 202 186 196 203 199 204 212 206 205
196 193 198 201 209 209 119 194 179 194 192 191 187 173 183 184 191 139 133 178 140 203 198 166 183 101 210 209 206 203 194 201
197 197 196 196 192 184 118 144 178 169 178 185 187 192 188 180 167 186 195 198 187 152 181 179 204 164 208 191 158 208 213 205
188 186 133 185 184 180 129 146 157 175 171 181 184 189 193 196 176 189 153 150 205 204 203 202 199 195 222 216 224 225 244 225
177 174 169 179 178 180 176 177 171 164 182 186 195 200 197 195 192 194 200 203 201 204 204 195 216 232 221 220 217 255 271 262
166 170 177 174 175 172 160 174 174 178 174 184 175 195 199 201 204 207 198 200 205 224 209 143 220 233 253 247 249 264 272 267
180 178 178 171 177 175 173 180 182 181 191 201 199 194 201 198 203 215 211 212 212 216 216 224 229 260 260 264 269 283 280 278
181 174 172 179 170 175 182 183 189 197 199 195 195 200 203 210 213 215 217 213 210 221 206 233 247 267 268 282 287 281 287 294
170 174 172 176 158 179 180 192 193 196 201 197 195 203 197 213 211 210 210 213 220 227 229 256 274 288 301 304 297 305 306 309
175 184 183 182 179 182 197 195 194 195 196 197 206 177 211 209 209 206 218 218 234 236 253 289 310 316 316 318 317 324 325 325
123 178 180 188 197 193 123 193 142 129 125 185 133 210 211 205 204 206 228 234 233 253 290 321 325 331 293 293 297 388 401 424
179 175 203 198 189 190 120 183 126 124 207 177 181 213 213 211 205 231 250 254 268 322 336 331 323 286 431 426 415 402 393 383
201 197 188 179 121 175 192 201 194 202 207 220 212 220 211 209 241 237 274 292 336 341 321 290 437 420 410 416 416 415 415 408
132 188 144 190 175 191 195 202 206 212 217 211 220 215 208 248 251 276 324 323 335 284 450 425 436 426 420 413 410 408 408 413
191 188 188 193 196 197 209 204 205 215 216 214 227 242 254 257 306 321 340 315 383 437 427 427 416 405 395 389 384 380 375 377
189 191 199 198 197 211 212 133 218 224 222 227 259 263 275 335 313 340 277 374 429 408 417 401 391 383 374 370 365 361 357 358
194 195 199 206 208 216 217 221 224 229 248 265 301 311 325 318 337 282 444 423 406 404 387 379 370 366 362 357 352 346 342 343
200 201 202 214 213 224 224 231 251 309 312 313 328 316 321 310 285 436 417 403 391 377 372 365 361 359 360 358 355 354 354 355

GFSFLT1_2pvu_pres_027.txt.gz
Presure
224 215 205 204 201 202 204 203 207 208 202 197 140 187 189 187 188 176 164 134 182 186 163 136 127 159 161 138 200 202 190 200
214 211 211 207 204 204 205 199 194 192 184 140 158 142 175 175 180 183 185 196 181 207 206 209 122 200 201 153 196 96 102 206
195 196 207 209 193 188 183 188 191 186 176 140 164 182 177 175 182 184 191 202 206 205 206 205 90 146 186 206 199 195 205 155
207 197 191 181 180 176 166 191 180 177 175 183 183 184 190 195 200 205 164 203 201 201 205 205 202 128 207 173 211 206 213 219
192 185 181 185 182 187 187 184 177 182 186 179 185 184 183 189 192 202 202 200 146 194 212 183 209 199 212 219 218 220 220 217
188 179 186 187 190 184 181 174 183 178 183 180 171 182 189 194 194 189 192 192 129 195 131 204 209 213 216 171 149 210 217 231
180 184 184 179 182 177 174 178 173 177 183 178 190 196 187 192 190 180 185 198 203 204 205 215 217 217 220 210 214 228 235 249
183 177 179 183 169 171 175 179 173 176 185 194 197 185 192 194 194 185 155 142 199 211 223 216 222 224 216 221 236 248 256 261
173 177 177 177 172 132 173 181 182 202 200 188 183 190 125 119 120 137 127 168 212 223 225 222 225 231 239 247 247 254 264 309
172 174 176 173 176 179 171 194 198 187 184 192 194 195 185 192 184 214 214 211 223 229 224 217 235 241 254 257 257 306 329 348
173 172 178 178 179 180 190 197 162 192 158 132 190 193 199 204 214 219 218 227 229 228 235 238 249 258 261 322 345 359 336 297
172 170 178 166 181 182 194 196 193 192 186 195 194 177 210 215 216 230 225 229 235 250 253 266 278 297 338 346 335 307 441 440
175 173 181 182 189 187 189 193 194 193 197 202 179 219 224 225 228 237 235 242 249 256 344 339 331 329 340 283 438 426 418 417
173 139 111 186 187 196 193 188 195 201 210 170 221 223 231 234 237 240 252 262 353 292 329 330 348 296 438 426 410 400 393 391
129 171 143 179 199 199 188 195 198 207 211 225 234 229 234 237 247 269 285 338 306 335 347 281 352 424 414 400 388 383 374 369
99 102 194 197 187 196 196 196 210 224 229 240 237 239 243 287 281 343 327 337 345 296 295 420 416 405 396 384 378 371 364 358
143 196 197 193 194 195 201 223 218 236 245 235 259 258 340 309 281 340 335 279 291 323 424 411 398 385 385 368 369 361 362 367
195 188 196 196 207 220 216 232 246 242 280 350 338 295 323 300 283 291 295 312 413 415 404 395 381 379 374 367 373 365 349 345
196 196 172 204 222 226 225 235 249 277 305 303 281 281 299 297 294 305 334 432 411 397 390 379 377 369 379 359 351 351 349 347

GFSFLT1_2pvu_pres_030.txt.gz
Presure
235 236 231 222 215 203 203 210 213 204 192 179 189 196 182 182 185 183 182 186 172 195 197 194 201 206 203 201 201 125 130 206
236 197 206 201 201 211 215 193 192 183 177 189 190 182 180 183 184 180 186 185 189 201 205 126 203 203 202 195 202 109 200 120
204 185 198 209 208 199 195 184 195 196 195 184 184 177 181 185 188 188 189 200 210 194 189 202 199 194 132 198 199 204 211 208
207 204 204 201 196 193 182 190 187 188 185 179 179 185 191 186 191 198 204 204 199 192 191 195 200 189 201 170 203 206 212 211
200 200 202 199 192 184 189 182 185 184 179 182 188 188 182 193 201 202 192 193 133 202 198 119 126 195 189 215 217 221 196 195
192 200 194 190 187 185 178 182 179 179 178 184 182 186 190 198 198 191 192 179 191 134 123 163 134 127 146 219 221 233 234 232
197 196 190 186 180 185 181 177 183 181 182 183 184 182 182 186 195 184 130 145 187 145 199 203 218 221 219 228 231 239 234 240
191 188 182 180 181 186 183 176 177 181 183 181 181 185 192 199 162 122 189 185 208 210 214 223 233 233 229 234 234 239 249 249
191 182 181 184 187 178 183 176 173 179 181 183 198 191 191 191 198 189 187 203 188 222 219 244 241 237 239 233 251 253 263 263
194 184 182 173 187 174 179 182 180 134 185 189 190 187 201 200 193 202 205 200 236 242 231 237 242 252 253 254 256 265 344 285
186 179 181 183 152 182 185 154 144 173 187 193 192 186 190 192 210 229 234 227 226 250 250 251 260 264 261 268 295 281 337 313
171 178 177 173 174 187 101 180 193 194 192 191 199 162 200 216 197 237 232 235 249 262 273 279 360 356 354 296 291 288 283 426
181 180 93 187 182 124 187 189 184 191 196 198 206 220 221 222 236 244 244 256 267 262 309 291 317 310 328 289 299 434 427 415
181 182 179 182 184 112 177 193 197 176 199 204 222 225 231 245 244 241 260 279 255 312 308 298 306 303 291 417 425 413 408 395
176 180 139 150 168 134 201 202 204 202 209 222 225 236 238 246 245 264 280 310 322 316 304 319 319 376 431 414 398 395 387 383
184 187 181 190 197 203 193 197 204 210 229 224 236 242 248 265 275 303 334 327 324 325 326 338 441 420 409 392 384 378 376 373
183 183 189 196 204 198 201 212 213 225 221 236 251 266 263 342 340 338 337 335 333 338 434 425 411 398 387 376 373 371 378 367
183 189 197 199 197 203 209 216 227 229 247 257 273 288 346 345 340 338 336 337 412 418 408 397 384 376 371 372 375 368 356 353
191 192 196 197 202 212 226 229 243 252 269 266 257 349 329 326 333 348 396 420 406 397 386 373 371 367 373 377 361 353 345 339

GFSFLT1_2pvu_pres_033.txt.gz
Presure
217 231 234 245 241 220 215 204 206 208 202 193 191 189 197 197 192 187 176 183 189 186 186 194 203 210 200 195 177 198 200 199
234 244 242 214 215 202 211 201 217 200 200 188 183 189 191 192 185 178 183 192 182 128 192 192 204 199 199 198 197 193 194 208
231 220 199 215 195 209 194 208 199 200 187 187 186 184 188 183 184 190 187 189 189 192 192 203 207 209 139 193 194 196 158 208
211 207 204 203 195 202 205 204 191 193 188 183 186 191 188 182 183 191 190 190 195 206 199 188 195 109 194 188 145 156 167 214
215 200 201 195 199 198 204 184 191 186 188 190 190 188 185 181 191 182 185 187 195 194 192 189 139 176 198 212 225 226 230 220
202 198 198 199 198 187 193 192 184 183 187 184 187 188 193 189 184 186 195 195 196 171 200 110 204 209 220 218 223 221 214 237
193 192 193 193 188 189 189 186 191 189 180 186 174 187 184 176 196 201 192 195 198 197 201 203 218 217 222 228 234 235 240 255
210 200 195 183 176 180 195 191 182 186 180 185 184 189 188 187 190 193 184 200 193 195 204 212 224 228 233 230 235 243 255 261
192 190 185 181 199 192 180 180 180 182 184 122 183 169 196 195 189 198 202 195 202 211 219 219 234 233 239 247 262 276 282 290
190 182 197 194 190 183 183 185 180 177 96 190 109 132 199 204 196 195 198 212 223 229 234 243 249 261 272 279 292 288 338 336
201 195 195 196 189 186 178 184 182 186 153 165 187 180 191 193 190 209 219 232 235 244 250 261 271 278 294 336 344 342 339 334
191 182 190 177 172 178 184 186 178 184 184 185 185 191 188 203 214 229 234 230 245 255 275 262 284 277 353 354 353 353 352 353
187 183 180 183 186 187 183 170 182 182 183 192 191 200 212 217 231 230 245 253 269 250 267 289 345 328 324 335 353 441 436 427
191 188 186 190 183 181 167 183 183 187 191 192 210 223 219 233 238 233 258 266 274 267 345 337 333 348 399 430 424 416 407 398
180 185 188 185 160 180 184 183 193 192 188 205 222 222 240 250 247 247 261 276 265 345 354 379 434 430 422 410 401 392 383 377
188 185 185 185 182 186 185 199 201 193 212 216 228 248 241 236 239 255 279 307 364 430 441 428 414 407 401 392 385 373 369 372
178 181 181 182 198 194 209 197 206 215 216 235 246 227 257 252 268 286 365 380 438 429 418 417 413 403 396 387 372 371 375 374
179 178 182 198 200 207 210 207 214 225 233 240 252 254 251 335 324 375 457 436 428 459 473 449 430 411 397 381 374 371 371 356
177 180 197 200 204 210 215 219 227 234 244 254 257 268 278 331 388 432 432 450 440 401 388 384 417 401 390 377 371 363 350 344

GFSFLT1_2pvu_pres_036.txt.gz
Presure
223 248 219 219 225 213 240 221 222 207 208 196 204 198 201 195 191 184 188 188 190 182 184 178 185 116 164 184 196 191 189 186
215 217 228 222 224 239 225 220 196 211 191 201 198 205 196 189 193 188 185 190 192 184 185 187 190 190 195 195 184 196 195 197
225 226 222 221 231 224 219 195 209 201 197 196 204 185 193 189 187 191 188 189 177 188 197 195 195 215 196 194 205 200 147 124
218 214 215 212 224 210 202 206 199 201 196 187 188 192 191 194 194 191 180 191 197 194 199 203 201 193 202 199 189 194 200 199
225 222 219 222 228 210 197 191 194 195 187 190 181 196 198 184 188 186 194 193 195 202 186 196 202 212 206 203 210 219 227 224
237 215 211 209 196 204 204 203 194 191 188 193 202 184 186 185 190 187 195 198 194 194 201 204 200 205 215 223 226 228 230 221
214 204 205 204 208 198 195 193 187 185 195 193 187 182 179 190 190 107 109 125 193 201 194 204 213 215 222 220 233 232 229 239
204 208 200 189 197 200 194 188 191 192 196 196 178 179 173 187 182 159 179 195 199 193 200 209 216 222 225 238 249 244 243 263
197 191 183 195 187 179 186 192 191 189 178 185 192 196 187 179 186 193 200 201 192 199 209 217 226 236 244 248 232 258 272 283
195 181 186 182 185 183 195 186 182 185 189 189 193 184 181 147 195 195 196 205 199 217 220 234 240 245 239 268 277 287 300 301
192 190 194 211 217 211 180 181 191 190 189 186 182 185 193 192 201 202 204 203 219 237 248 264 246 263 270 284 313 317 347 419
216 210 207 198 190 179 184 187 182 182 184 181 188 190 202 198 205 213 218 227 249 250 251 246 256 268 278 346 429 448 442 437
202 210 206 177 179 191 185 177 183 184 177 179 196 198 194 197 226 226 225 245 250 270 267 267 271 280 444 444 437 427 420 413
199 174 176 178 189 187 176 182 180 179 180 194 195 213 215 222 221 236 247 252 260 246 273 271 378 444 434 447 439 431 420 410
193 190 180 181 185 177 185 177 182 184 197 201 200 220 227 216 238 240 263 268 270 274 351 463 466 461 480 453 434 439 420 408
196 193 193 191 184 185 181 185 195 204 204 209 220 223 227 241 257 256 262 266 277 426 475 449 435 421 394 387 380 427 409 395
195 192 186 181 181 182 189 200 194 205 217 218 225 231 243 255 253 272 288 328 442 470 445 409 394 386 401 382 380 404 388 375
189 184 175 181 186 172 193 196 206 214 221 227 238 241 251 261 282 275 403 467 480 424 398 439 459 451 385 373 381 375 363 352
177 178 180 186 183 200 205 207 210 226 229 232 244 248 263 259 363 481 475 441 409 397 444 454 439 386 382 377 372 355 342 337

GFSFLT1_2pvu_pres_039.txt.gz
Presure
210 212 251 237 232 223 214 208 229 225 213 205 210 228 196 203 196 194 193 185 184 191 194 192 187 184 184 192 195 192 192 189
230 227 230 222 222 215 215 209 208 205 221 213 213 198 202 185 192 190 184 185 185 195 198 184 185 189 188 188 191 188 186 186
223 222 219 214 220 216 214 213 219 214 227 228 195 188 183 189 186 186 189 188 200 198 184 187 189 196 179 191 194 196 182 189
219 218 217 222 220 211 211 212 211 210 185 212 195 192 193 192 192 193 199 204 190 188 186 195 190 185 194 200 200 208 208 202
225 231 233 223 221 225 221 199 193 195 195 199 206 195 194 194 192 194 183 189 134 190 195 195 198 198 209 210 209 213 206 216
254 247 246 241 225 208 196 194 192 195 185 197 201 190 196 203 197 193 195 195 196 191 198 194 212 206 195 209 217 224 224 224
225 221 220 223 217 214 212 198 195 197 191 192 192 194 201 186 194 191 191 183 183 186 197 199 198 206 210 207 220 221 226 221
198 198 195 195 194 201 198 191 193 193 190 198 204 207 184 183 179 186 178 183 188 196 196 202 206 208 212 219 212 237 255 261
203 200 202 202 201 198 192 193 193 196 214 208 190 180 175 179 184 185 184 194 193 202 200 201 216 216 230 234 253 260 280 266
190 191 191 195 204 205 213 215 213 209 199 181 194 194 183 179 181 184 190 196 201 202 210 214 245 243 259 255 273 287 301 299
196 196 199 211 211 207 205 204 194 179 178 183 185 188 184 181 185 191 197 200 207 230 236 248 245 267 267 265 272 291 383 447
208 201 210 210 202 189 198 191 190 189 188 189 184 180 186 181 193 195 204 228 237 243 239 251 260 258 264 276 379 471 451 475
202 194 191 191 212 207 204 199 198 194 183 180 185 184 185 198 207 209 237 237 234 236 250 250 256 266 331 462 486 459 445 421
197 205 202 203 206 205 202 194 181 180 184 187 190 195 208 205 232 237 226 236 241 244 258 257 348 465 477 474 433 416 397 482
198 194 195 222 215 203 177 176 186 187 187 193 209 212 222 225 230 235 241 263 288 254 310 444 490 463 455 405 411 425 476 432
195 197 207 212 205 198 189 189 184 195 205 212 228 215 219 239 253 268 267 251 276 341 508 478 440 418 412 444 458 448 397 390
207 200 205 203 193 186 184 199 198 203 224 226 213 231 237 247 256 246 260 304 416 525 458 426 403 410 465 447 402 393 387 372
203 203 197 190 195 194 198 191 205 220 217 226 227 236 253 246 249 274 306 443 489 440 407 391 483 461 414 395 384 371 350 337
191 178 189 199 198 194 203 213 216 220 217 224 242 256 255 256 271 297 467 479 437 402 387 412 409 400 381 361 346 332 324 353

GFSFLT1_2pvu_pres_042.txt.gz
Presure
206 202 203 201 204 231 224 221 230 207 222 202 203 214 211 211 210 212 217 221 195 192 192 192 192 189 198 202 188 189 192 190
207 208 210 230 229 220 223 239 237 249 213 217 203 202 205 203 199 197 196 189 196 196 199 186 189 184 183 192 190 185 178 186
225 222 221 225 221 224 219 220 225 223 219 213 217 212 204 196 195 193 191 195 187 186 191 190 195 192 189 176 159 177 184 193
218 219 217 220 216 212 217 226 230 229 214 209 213 224 202 190 188 184 188 187 187 190 191 190 175 182 175 175 187 185 194 193
230 232 240 243 247 250 248 245 244 243 231 215 206 207 203 195 187 190 182 188 195 203 186 164 181 179 192 193 193 201 199 211
239 226 214 212 210 204 197 193 193 191 187 187 193 192 188 187 191 191 201 215 192 192 201 181 185 192 193 200 196 205 216 216
214 209 203 199 193 197 200 210 203 203 200 193 194 194 196 205 214 219 196 182 195 202 189 192 192 195 196 199 212 211 224 233
196 195 194 202 207 206 203 207 212 215 222 221 217 212 207 203 202 186 194 201 191 192 192 194 196 199 208 213 210 237 239 239
208 204 202 202 204 209 212 209 208 212 213 208 194 187 198 202 205 203 186 189 193 186 195 196 209 211 206 207 257 271 276 267
195 199 200 203 201 209 211 206 203 199 193 214 214 211 206 200 182 190 186 188 188 193 195 198 209 232 259 270 263 255 242 293
201 197 197 193 201 202 199 204 206 200 205 211 207 201 186 184 189 185 184 189 197 232 237 240 260 271 264 274 283 300 323 321
190 193 188 187 192 197 197 195 193 193 206 207 195 189 182 184 183 187 198 202 228 234 255 254 253 290 303 319 303 470 475 445
220 223 224 219 188 191 188 192 193 205 198 194 184 184 183 190 199 196 228 231 235 230 254 250 286 306 305 429 478 446 425 411
227 224 227 230 225 221 211 202 200 193 184 189 196 199 203 219 233 236 228 238 241 251 255 278 300 314 518 456 429 409 439 451
219 225 218 216 217 203 193 189 178 189 194 199 216 217 222 231 226 230 231 240 255 252 236 308 321 482 445 415 441 482 466 438
223 220 212 210 202 199 194 189 188 196 212 211 223 229 231 221 234 229 235 261 252 273 311 395 468 435 407 388 416 403 384 375
226 225 223 200 192 195 182 193 210 216 214 208 224 228 225 237 232 235 265 260 272 323 392 469 435 403 383 368 373 366 362 347
231 204 184 190 192 191 208 212 205 217 216 224 229 234 230 226 247 259 251 271 322 468 474 442 408 379 362 364 368 360 337 332
195 194 196 192 196 209 208 215 213 215 215 226 235 228 226 255 252 248 265 300 464 449 452 415 384 367 356 358 351 338 330 335

GFSFLT1_2pvu_pres_045.txt.gz
Presure
203 202 206 212 203 210 205 211 239 222 262 222 206 238 200 225 223 209 207 206 207 206 197 197 190 192 184 189 192 193 189 186
203 208 210 204 210 213 242 230 219 229 201 207 205 206 218 234 211 203 206 205 196 202 202 184 187 190 184 189 197 201 197 168
215 218 242 222 234 214 222 228 221 233 223 222 225 227 222 213 210 214 212 206 189 185 191 186 188 190 195 201 184 181 183 192
226 222 219 214 229 246 249 246 244 227 224 203 202 195 191 190 194 198 206 198 195 195 193 194 199 205 213 192 181 187 193 195
217 215 245 239 229 218 211 207 203 202 201 193 200 208 204 199 198 203 205 205 204 201 203 203 196 192 185 190 195 202 194 192
236 222 212 208 207 202 201 198 193 193 199 189 189 194 193 199 206 206 205 203 200 197 198 206 204 205 204 187 192 194 202 211
205 205 201 196 192 193 208 206 200 206 207 206 218 216 212 206 198 194 210 214 210 211 206 200 183 188 194 198 203 207 198 212
195 194 193 201 204 201 204 206 203 198 202 206 205 203 201 197 196 210 221 214 208 202 198 196 199 201 196 208 204 212 217 226
205 206 201 200 202 200 200 194 202 202 199 195 199 199 200 199 215 206 205 200 195 197 201 199 193 207 200 215 227 236 239 257
196 193 197 195 197 207 225 229 230 230 229 232 233 222 209 205 199 190 192 192 196 199 195 222 217 218 227 256 271 260 268 283
197 201 208 206 208 220 225 226 228 229 226 219 209 202 192 189 187 191 189 192 195 199 235 233 228 249 260 267 249 269 294 322
203 203 202 207 213 220 217 223 218 213 210 199 192 192 187 184 184 190 198 218 206 203 239 239 259 260 251 265 283 309 356 470
199 201 208 213 229 221 220 206 212 204 194 192 189 184 188 197 211 201 208 247 241 248 259 257 244 240 264 295 296 457 447 427
201 201 220 244 255 263 229 210 203 190 182 190 187 190 215 220 219 240 243 257 262 249 243 264 267 309 310 343 457 446 422 401
206 214 220 237 238 207 202 197 189 192 196 187 193 210 214 218 241 248 241 250 246 234 254 290 298 294 374 464 444 418 396 382
212 219 215 203 199 199 192 189 193 194 196 215 213 213 217 225 244 247 247 250 235 251 270 279 275 325 457 446 418 398 379 366
214 214 207 200 202 190 186 197 197 199 217 207 212 220 205 241 244 243 242 241 262 271 276 303 323 414 453 422 398 376 365 358
204 226 201 198 190 192 198 200 201 214 214 207 212 214 235 245 251 254 235 258 285 289 284 319 396 451 430 400 380 366 356 353
208 219 217 195 191 197 193 202 214 205 210 205 213 234 239 252 251 235 256 268 273 263 342 388 445 435 407 382 365 363 352 345

GFSFLT1_2pvu_pres_048.txt.gz
Presure
203 201 203 202 207 196 195 201 203 226 214 209 210 199 215 198 212 209 210 212 204 198 205 187 197 213 207 197 195 195 199 199
207 194 192 196 201 198 201 215 241 226 227 204 208 233 225 214 223 193 197 193 189 195 198 199 195 197 200 204 205 210 211 206
202 200 204 205 207 221 230 223 224 253 252 240 230 223 211 203 199 195 186 192 195 186 195 199 205 205 202 202 199 195 195 194
200 205 204 227 217 215 247 233 222 215 211 203 202 200 200 195 191 193 190 202 209 206 203 202 197 197 207 209 208 207 206 205
228 225 217 206 235 225 215 209 203 201 203 193 192 199 197 194 204 204 199 198 196 197 196 194 194 201 209 207 206 203 200 197
212 206 226 216 211 205 199 202 199 191 195 195 199 206 206 203 199 203 196 190 194 193 195 195 203 201 195 194 193 194 196 203
221 211 207 202 200 198 193 201 205 203 205 203 198 189 188 205 206 215 217 223 225 206 200 194 192 193 196 196 194 203 211 216
199 199 200 190 197 198 199 201 200 195 191 223 234 234 234 234 233 229 208 202 198 194 194 195 191 194 199 215 204 244 253 249
192 192 200 198 197 195 195 214 212 217 217 225 225 229 226 215 206 200 194 195 196 199 197 197 196 194 238 239 259 258 256 247
196 192 200 193 207 209 211 212 215 222 253 243 234 236 212 202 196 190 195 193 190 190 192 191 234 249 256 256 254 244 264 248
194 191 201 203 205 203 206 206 225 234 248 257 219 204 196 191 189 192 193 191 191 190 211 237 255 259 254 240 243 270 283 274
202 206 204 203 209 208 199 209 214 214 206 201 191 188 185 187 184 189 195 205 207 219 221 261 256 259 243 233 272 268 288 305
200 200 200 194 205 211 215 215 208 201 197 192 189 181 181 184 195 204 210 218 230 210 263 255 259 242 253 273 279 289 374 334
199 194 209 213 207 200 210 215 201 197 198 191 187 183 187 198 215 212 223 224 238 252 261 244 253 250 278 265 277 317 371 402
206 199 196 202 202 199 195 211 220 217 194 190 196 191 196 214 212 210 208 238 249 256 253 240 256 262 279 287 326 388 385 438
200 199 202 195 202 211 204 219 215 197 199 204 189 201 216 213 205 212 215 244 221 255 243 247 260 285 282 323 391 383 440 418
192 194 192 200 198 192 204 211 211 207 203 196 205 211 211 206 219 220 233 250 251 240 260 265 273 276 310 390 385 445 418 399
192 188 198 195 199 196 209 220 215 204 198 211 204 219 211 215 213 225 223 256 235 253 254 269 283 264 388 386 390 422 400 379
182 191 194 201 200 203 219 218 222 201 212 204 208 217 215 212 222 233 250 255 249 253 265 287 269 352 391 371 429 405 372 374